Location: Newark
(39.6172°N, 96.8533°W)
Time: 20:43:00
(UTC+00:00)

Envisat - Pass Details

Date: 01 February 2020
Orbit: 764 x 766 km, 98.1° (Epoch: 25 February)

Event Time Altitude Azimuth Distance (km) Brightness Sun altitude
Rises 11:54:36 0° 31° (NNE) 3,238 6.6 -19.6°
Reaches altitude 10° 11:57:45 10° 52° (NE) 2,306 6.1 -19.0°
Maximum altitude 12:00:58 17° 92° (E) 1,875 6.1 -18.4°
Drops below altitude 10° 12:04:09 10° 131° (SE) 2,295 6.3 -17.8°
Sets 12:07:17 0° 152° (SSE) 3,215 6.8 -17.2°
